星链-1069 (STARLINK-1069 )

导读 | 星芒AI

STARLINK-1069 是 SpaceX Starlink 卫星互联网项目中的第1069颗卫星,属于低轨卫星群的一部分。该卫星于2022年发射,旨在为全球用户提供高速、低延迟的宽带互联网服务。它运行在约550公里高的近地轨道,采用先进通信技术,支持全球范围内的网络连接,尤其服务于偏远和网络基础设施薄弱的地区。Starlink 项目由数千颗卫星组成,致力于构建全球覆盖的卫星互联网系统。

基本信息
目录编号:
44955
目录名称:
STARLINK-1069
国际标识:
2020-001AT
轨道中心:
EARTH
卫星名称:
星链-1069
卫星全名:
星链-1069 (STARLINK-1069 )
卫星状态:
已陨落 最后检测时间 2023-12-15
发射日期:
2020-01-07 UTC
国别 :
美国 (US)
星等 :
--
轨道信息
数据来源 国际轨道数据
星历时间: 2023-12-15T20:26:29+0800
轨道信息已过期737天
半长轴: 6580.414km
偏心率: 0.0002691
轨道倾角: 53.026°
近地点辐角 148.725°
升交点赤经 312.079°
平近点角 311.834°
近地点: 200.508km
远地点: 204.05km
周期: 88.540分钟
每日圈数: 16.263837
详细信息
固有亮度:
5
最大亮度:
2.5
卫星平台:
Starlink V1.0
覆盖范围:
全球
运营商:
太空探索技术公司
运营商所在国:
美国
制造商(研发单位):
太空探索技术公司
制造商所在国:
美国
使用方式:
暂无
卫星简介
星链(Starlink)计划是由太空探索技术公司(SpaceX)提出的一个巨型低轨卫星互联网星座项目,计划在2019年至2024年间在太空搭建由约1.2万颗卫星组成的“星链”网络,其中1584颗将部署在地球上空550千米处的近地轨道,并从2020年开始工作。该卫星已陨落。